STARLINK-1322 (45552 NORAD) Tracking and Keplerian Element Data

This shows tracking and keplerian element data for the satellite.

Feedback or suggestion? Click here.




ElementValue
Catalog45552
NameSTARLINK-1322
Epoch Orbit549
Epoch Day144.25001157
Epoch Year2020
RAAN249.0232
Inclination53.0002
Eccentricity0.0001063
Argument of Perigee103.2819
Mean Anonmoly145.0758
Mean Motion15.6271701
Decay Rate0.00053065
L11 45552U 20025X 20144.25001157 .00053065 00000-0 58239-3 0 9991
L22 45552 53.0002 249.0232 0001063 103.2819 145.0758 15.62717010 5497

Live tracking and technical data element details for STARLINK-1322 (NORAD 45552). STARLINK-1322 can be tracked NOW for your location showing map with azimuth and elevation plus other details from your city location.

Track the satellite on the map from your city or location and see movement details for azimuth, elevation, latitude, longitude, range, height, and movement on the map or in text.







IsCatalogInMostPopularTable: catalog: 45552, numindb: 6
Update: records affected: 1



GetName: 45552 STARLINK-1322

Hit Count: updated at: Mon, 25 May 2020 07:05:19 GMT